Date String (YYYY-MM-DD hh:mm:ss) UTC,Instrument flags,Ambient pressure (hPa),Sample flow (lpm),Bypass flow (lpm),Sample temperature (°C),Ambient temperature (°C),ASC tube jacket temperature (°C),LED temperature (°C),Box temperature (°C),Sample RH (%),Span deviation,Mass concentration (μg/m³),Mass concentration (μg/m³),Mass concentration (μg/m³)
DateTimeUTC,F1_M11,P_M11,Q1_M11,Q2_M11,T1_M11,T2_M11,T3_M11,T4_M11,T5_M11,U1_M11,ZSPAN_M11,X0_M11,X2_M11,X1_M11
2023-02-22 18:00:00,,0808.5,5.00,0.00,22.7,21.0,00.0,31.6,24.1,05.0,0000.0,0004.90,0003.17,0002.72
2023-02-22 18:01:00,,0808.4,5.01,0.00,22.8,22.0,00.0,31.6,24.4,04.9,0000.0,0004.91,0003.18,0002.71
2023-02-22 18:02:00,,0808.4,4.99,0.00,22.9,23.0,00.0,31.6,24.7,04.9,0000.0,0004.86,0003.17,0002.71
2023-02-22 18:03:00,,0808.6,5.01,0.00,23.0,23.7,00.0,31.6,24.9,04.9,0000.0,0005.26,0003.17,0002.72
2023-02-22 18:04:00,,0808.6,4.99,0.00,23.0,23.3,00.0,31.6,24.9,04.8,0000.0,0005.78,0003.17,0002.72
2023-02-22 18:05:00,,0808.7,4.95,0.00,23.0,22.7,00.0,31.7,24.7,04.8,0000.0,0006.27,0003.19,0002.73
2023-02-22 18:06:00,,0808.7,5.00,0.00,23.0,22.1,00.0,31.7,24.6,04.8,0000.0,0006.52,0003.22,0002.74
2023-02-22 18:07:00,,0808.7,5.00,0.00,22.9,21.7,00.0,31.7,24.4,04.8,0000.0,0006.69,0003.24,0002.75
2023-02-22 18:08:00,,0808.7,5.00,0.00,22.9,21.3,00.0,31.7,24.3,04.8,0000.0,0006.61,0003.22,0002.74
2023-02-22 18:09:00,,0808.6,5.00,0.00,22.8,21.0,00.0,31.6,24.2,04.8,0000.0,0006.63,0003.21,0002.74
2023-02-22 18:10:00,,0808.6,5.00,0.00,22.7,20.9,00.0,31.6,24.2,04.9,0000.0,0006.58,0003.20,0002.72
2023-02-22 18:11:00,,0808.5,5.00,0.00,22.8,21.8,00.0,31.6,24.4,04.9,0000.0,0006.54,0003.19,0002.72
2023-02-22 18:12:00,,0808.4,5.01,0.00,22.9,22.8,00.0,31.6,24.7,04.9,0000.0,0006.61,0003.19,0002.71
2023-02-22 18:13:00,,0808.4,5.02,0.00,23.0,23.3,00.0,31.6,24.8,04.8,0000.0,0006.67,0003.19,0002.68
2023-02-22 18:14:00,,0808.5,4.98,0.00,23.0,22.7,00.0,31.7,24.7,04.8,0000.0,0006.18,0003.20,0002.70
2023-02-22 18:15:00,,0808.5,4.98,0.00,22.9,22.1,00.0,31.7,24.5,04.8,0000.0,0005.26,0003.19,0002.69
2023-02-22 18:16:00,,0808.4,5.00,0.00,22.9,21.6,00.0,31.7,24.3,04.8,0000.0,0004.59,0003.15,0002.67
2023-02-22 18:17:00,,0808.4,5.00,0.00,22.8,21.2,00.0,31.6,24.2,04.8,0000.0,0004.44,0003.14,0002.67
2023-02-22 18:18:00,,0808.4,5.00,0.00,22.8,21.0,00.0,31.6,24.2,04.9,0000.0,0004.35,0003.13,0002.67
2023-02-22 18:19:00,,0808.4,5.01,0.00,22.8,21.9,00.0,31.6,24.4,04.9,0000.0,0004.36,0003.13,0002.66
2023-02-22 18:20:00,,0808.5,4.98,0.00,22.9,22.9,00.0,31.6,24.7,04.8,0000.0,0004.30,0003.11,0002.63
2023-02-22 18:21:00,,0808.5,4.99,0.00,23.0,23.3,00.0,31.6,24.8,04.8,0000.0,0004.21,0003.09,0002.63
2023-02-22 18:22:00,,0808.5,4.99,0.00,23.0,22.7,00.0,31.6,24.7,04.8,0000.0,0004.17,0003.07,0002.62
2023-02-22 18:23:00,,0808.4,5.01,0.00,22.9,22.2,00.0,31.7,24.5,04.8,0000.0,0004.18,0003.06,0002.62
2023-02-22 18:24:00,,0808.4,5.01,0.00,22.9,21.7,00.0,31.6,24.4,04.8,0000.0,0004.10,0003.05,0002.64
2023-02-22 18:25:00,,0808.4,5.00,0.00,22.8,21.3,00.0,31.6,24.3,04.8,0000.0,0004.06,0003.02,0002.61
2023-02-22 18:26:00,,0808.4,5.01,0.00,22.8,21.2,00.0,31.6,24.2,04.9,0000.0,0004.06,0003.02,0002.61
2023-02-22 18:27:00,,0808.5,5.02,0.00,22.8,22.0,00.0,31.6,24.4,04.9,0000.0,0004.07,0003.02,0002.60
2023-02-22 18:28:00,,0808.5,5.02,0.00,22.9,23.0,00.0,31.6,24.7,04.8,0000.0,0003.98,0002.98,0002.58
2023-02-22 18:29:00,,0808.4,4.99,0.00,23.0,23.5,00.0,31.6,24.9,04.8,0000.0,0003.89,0002.94,0002.55
2023-02-22 18:30:00,,0808.5,4.97,0.00,23.0,22.8,00.0,31.7,24.7,04.8,0000.0,0003.86,0002.93,0002.56
2023-02-22 18:31:00,,0808.4,5.01,0.00,23.0,22.2,00.0,31.7,24.5,04.8,0000.0,0004.01,0003.02,0002.59
2023-02-22 18:32:00,,0808.2,5.00,0.00,22.9,21.7,00.0,31.7,24.4,04.8,0000.0,0004.18,0003.06,0002.60
2023-02-22 18:33:00,,0808.2,5.00,0.00,22.8,21.3,00.0,31.7,24.3,04.9,0000.0,0004.15,0003.05,0002.61
2023-02-22 18:34:00,,0808.2,4.99,0.00,22.8,21.0,00.0,31.6,24.2,04.9,0000.0,0003.98,0003.02,0002.62
2023-02-22 18:35:00,,0808.2,5.01,0.00,22.8,21.3,00.0,31.6,24.3,04.8,0000.0,0004.01,0003.03,0002.62
2023-02-22 18:36:00,,0808.2,5.00,0.00,22.9,22.3,00.0,31.6,24.6,04.8,0000.0,0003.98,0003.00,0002.62
2023-02-22 18:37:00,,0808.3,5.00,0.00,22.9,23.2,00.0,31.6,24.8,04.8,0000.0,0003.92,0002.96,0002.61
2023-02-22 18:38:00,,0808.3,4.98,0.00,23.0,23.1,00.0,31.6,24.8,04.8,0000.0,0004.03,0003.00,0002.61
2023-02-22 18:39:00,,0808.3,5.05,0.00,23.0,22.5,00.0,31.7,24.7,04.8,0000.0,0004.26,0003.03,0002.60
2023-02-22 18:40:00,,0808.3,5.00,0.00,22.9,21.9,00.0,31.7,24.5,04.9,0000.0,0004.44,0003.06,0002.60
2023-02-22 18:41:00,,0808.4,5.01,0.00,22.9,21.5,00.0,31.7,24.4,04.8,0000.0,0004.66,0003.12,0002.60
2023-02-22 18:42:00,,0808.4,5.01,0.00,22.8,21.1,00.0,31.6,24.3,04.8,0000.0,0004.62,0003.06,0002.57
2023-02-22 18:43:00,,0808.4,5.00,0.00,22.7,20.9,00.0,31.6,24.2,04.9,0000.0,0004.72,0003.10,0002.56
2023-02-22 18:44:00,,0808.4,5.01,0.00,22.8,21.8,00.0,31.6,24.4,04.8,0000.0,0004.90,0003.14,0002.55
2023-02-22 18:45:00,,0808.4,4.98,0.00,22.9,22.8,00.0,31.6,24.7,04.9,0000.0,0005.02,0003.15,0002.54
2023-02-22 18:46:00,,0808.3,5.00,0.00,23.0,23.4,00.0,31.6,24.9,04.8,0000.0,0005.08,0003.15,0002.53
2023-02-22 18:47:00,,0808.2,5.00,0.00,23.0,22.8,00.0,31.6,24.8,04.7,0000.0,0005.19,0003.17,0002.52
2023-02-22 18:48:00,,0808.1,4.98,0.00,23.0,22.2,00.0,31.7,24.6,04.7,0000.0,0005.21,0003.18,0002.52
2023-02-22 18:49:00,,0808.0,5.00,0.00,22.9,21.8,00.0,31.7,24.4,04.8,0000.0,0005.10,0003.16,0002.51
2023-02-22 18:50:00,,0808.0,5.00,0.00,22.8,21.3,00.0,31.7,24.3,04.8,0000.0,0004.99,0003.17,0002.51
2023-02-22 18:51:00,,0807.7,5.00,0.00,22.8,21.1,00.0,31.6,24.2,04.7,0000.0,0004.89,0003.17,0002.50
2023-02-22 18:52:00,,0807.6,5.00,0.00,22.7,20.9,00.0,31.6,24.2,04.8,0000.0,0004.92,0003.15,0002.49
2023-02-22 18:53:00,,0807.5,4.99,0.00,22.7,21.1,00.0,31.6,24.2,04.7,0000.0,0004.85,0003.15,0002.49
2023-02-22 18:54:00,,0807.6,5.03,0.00,22.8,22.3,00.0,31.6,24.5,04.6,0000.0,0004.87,0003.14,0002.48
2023-02-22 18:55:00,,0807.7,5.00,0.00,22.9,23.4,00.0,31.6,24.8,04.6,0000.0,0004.81,0003.10,0002.48
2023-02-22 18:56:00,,0807.6,4.99,0.00,23.0,23.2,00.0,31.6,24.8,04.6,0000.0,0004.89,0003.10,0002.48
2023-02-22 18:57:00,,0807.7,5.03,0.00,22.9,22.6,00.0,31.6,24.6,04.7,0000.0,0004.76,0003.06,0002.47
2023-02-22 18:58:00,,0807.8,4.98,0.00,22.9,22.2,00.0,31.6,24.5,04.8,0000.0,0004.71,0003.02,0002.46
2023-02-22 18:59:00,,0807.8,5.00,0.00,22.9,21.8,00.0,31.6,24.4,04.8,0000.0,0004.75,0003.00,0002.46
